Regional Weather Roundup
Issued by NWS

Home | Current Version | Previous Version | Text Only | Print | Product List | Glossary Off
Versions: 1 2 3 4 5 6 7 8 9 10 11 12 13 14 15 16 17 18 19 20 21 22 23 24 25 26 27 28 29 30 31 32 33 34 35 36 37 38 39 40 41 42 43 44 45 46 47 48 49 50

841
ASUS45 KBOI 240010
RWRID

IDAHO REGIONAL WEATHER ROUNDUP
NATIONAL WEATHER SERVICE BOISE ID
600 PM MDT SAT SEP 23 2017

NOTE: "FAIR" INDICATES FEW OR NO CLOUDS BELOW 12000 FEET
WITH NO SIGNIFICANT WEATHER AND/OR OBSTRUCTIONS TO VISIBILITY

IDZ012-014-240100-
SOUTHWEST IDAHO


CITY           SKY/WX    TMP DP  RH WIND       PRES   REMARKS
BOISE          SUNNY     60  34  37 NW14      30.01S
CALDWELL       SUNNY     62  35  36 NW9       30.02S
MOUNTAIN HOME  SUNNY     61  33  36 NW12      30.01S
$$

IDZ016-017-240100-
SOUTHCENTRAL IDAHO


CITY           SKY/WX    TMP DP  RH WIND       PRES   REMARKS
BURLEY         MOSUNNY   51  33  50 W6        29.99F
JEROME         SUNNY     54  35  48 SW9       30.01S
TWIN FALLS     SUNNY     53  32  44 W8        30.02S
$$

IDZ019>023-240100-
SOUTHEAST IDAHO


CITY           SKY/WX    TMP DP  RH WIND       PRES   REMARKS
IDAHO FALLS    MOSUNNY   53  32  44 N9G21     29.99S
POCATELLO      CLOUDY    53  35  50 NW6       29.99S
REXBURG        MOSUNNY   54  29  38 NW7       29.97S
$$

IDZ006-010-011-018-031-032-240100-
CENTRAL IDAHO MOUNTAINS


CITY           SKY/WX    TMP DP  RH WIND       PRES   REMARKS
MCCALL         CLOUDY    47  31  53 N9        30.05R
HAILEY         PTSUNNY   50  34  53 SE12      30.01F
STANLEY          N/A     45  26  47 N6        30.05S
SALMON         CLOUDY    51  30  44 N13       30.07R
CHALLIS        CLOUDY    48  31  51 N3        30.05S
$$

IDZ002-004-006-007-026-240100-
NORTHERN IDAHO


CITY           SKY/WX    TMP DP  RH WIND       PRES   REMARKS
LEWISTON       SUNNY     64  37  36 CALM      30.08S
LOWELL           N/A     56  46  69 CALM      30.11R
COEUR D`ALENE  PTSUNNY   58  41  53 W7        30.08S
MULLAN PASS    PTSUNNY   37  32  82 NW3       30.10R
$$




USA.gov is the U.S. government's official web portal to all federal, state and local government web resources and services.